TimeCDT,TemperatureF,Dew PointF,Humidity,Sea Level PressureIn,VisibilityMPH,Wind Direction,Wind SpeedMPH,Gust SpeedMPH,PrecipitationIn,Events,Conditions,WindDirDegrees,DateUTC
12:15 AM,73.9,70.7,90,29.79,5.0,SSE,4.6,-,N/A,,Overcast,150,2013-05-01 05:15:00
12:35 AM,73.8,70.3,89,29.79,5.0,South,3.5,-,N/A,,Mostly Cloudy,170,2013-05-01 05:35:00
12:55 AM,73.6,70.3,90,29.78,5.0,SE,4.6,-,N/A,,Mostly Cloudy,140,2013-05-01 05:55:00
1:15 AM,73.8,70.7,90,29.78,5.0,SE,4.6,-,N/A,,Overcast,130,2013-05-01 06:15:00
1:35 AM,73.6,70.3,90,29.77,5.0,SE,3.5,-,N/A,,Mostly Cloudy,130,2013-05-01 06:35:00
1:55 AM,73.4,70.2,90,29.76,4.0,SE,3.5,-,N/A,,Scattered Clouds,130,2013-05-01 06:55:00
2:15 AM,73.4,70.7,91,29.75,4.0,ESE,3.5,-,N/A,,Mostly Cloudy,110,2013-05-01 07:15:00
2:35 AM,73.8,70.5,90,29.74,4.0,East,3.5,-,N/A,,Overcast,100,2013-05-01 07:35:00
3:15 AM,73.4,70.3,90,29.75,3.0,SE,3.5,-,N/A,,Mostly Cloudy,140,2013-05-01 08:15:00
3:35 AM,73.8,70.7,90,29.75,4.0,SSE,6.9,-,N/A,,Overcast,150,2013-05-01 08:35:00
3:55 AM,73.8,70.7,90,29.74,4.0,SSE,6.9,-,N/A,,Overcast,160,2013-05-01 08:55:00
4:15 AM,73.8,70.7,90,29.74,5.0,SSE,6.9,-,N/A,,Overcast,160,2013-05-01 09:15:00
4:35 AM,74.3,70.7,88,29.74,5.0,SSE,8.1,-,N/A,,Overcast,160,2013-05-01 09:35:00
4:55 AM,74.1,70.3,88,29.75,5.0,SE,5.8,-,N/A,,Overcast,140,2013-05-01 09:55:00
5:15 AM,73.9,70.2,88,29.75,5.0,SSE,4.6,-,N/A,,Overcast,150,2013-05-01 10:15:00
5:35 AM,74.1,70.2,87,29.76,5.0,SSE,4.6,-,N/A,,Overcast,160,2013-05-01 10:35:00
5:55 AM,74.1,70.3,88,29.77,5.0,SSE,3.5,-,N/A,,Overcast,150,2013-05-01 10:55:00
6:15 AM,73.9,70.2,88,29.77,5.0,SE,4.6,-,N/A,,Overcast,140,2013-05-01 11:15:00
6:35 AM,73.9,70.2,88,29.77,5.0,SE,5.8,-,N/A,,Overcast,140,2013-05-01 11:35:00
6:55 AM,73.8,70.3,89,29.78,5.0,SE,6.9,-,N/A,,Overcast,140,2013-05-01 11:55:00
7:15 AM,73.9,70.5,89,29.78,5.0,SE,4.6,-,N/A,,Overcast,140,2013-05-01 12:15:00
7:35 AM,73.9,70.7,90,29.78,4.0,SE,4.6,-,N/A,,Overcast,130,2013-05-01 12:35:00
8:15 AM,75.6,70.9,85,29.78,5.0,SE,9.2,-,N/A,,Haze,140,2013-05-01 13:15:00
8:35 AM,76.8,70.7,81,29.79,5.0,SE,6.9,-,N/A,,Haze,130,2013-05-01 13:35:00
8:55 AM,77.9,70.3,77,29.79,7.0,ESE,6.9,-,N/A,,Clear,120,2013-05-01 13:55:00
9:15 AM,79.3,70.7,75,29.80,7.0,ESE,8.1,-,N/A,,Scattered Clouds,120,2013-05-01 14:15:00
9:35 AM,80.1,70.2,72,29.80,7.0,ESE,8.1,-,N/A,,Scattered Clouds,120,2013-05-01 14:35:00
9:55 AM,81.1,70.2,69,29.80,5.0,SE,9.2,-,N/A,,Haze,130,2013-05-01 14:55:00
10:15 AM,82.4,70.2,66,29.80,7.0,ESE,9.2,-,N/A,,Scattered Clouds,120,2013-05-01 15:15:00
10:35 AM,83.1,70.3,65,29.80,7.0,ESE,8.1,-,N/A,,Mostly Cloudy,120,2013-05-01 15:35:00
11:15 AM,85.6,70.3,60,29.80,7.0,SE,9.2,-,N/A,,Mostly Cloudy,140,2013-05-01 16:15:00
11:35 AM,86.2,69.8,58,29.80,7.0,SSE,8.1,16.1,N/A,,Mostly Cloudy,160,2013-05-01 16:35:00
12:15 PM,86.9,69.8,57,29.81,7.0,SE,10.4,16.1,N/A,,Overcast,140,2013-05-01 17:15:00
12:35 PM,87.6,69.8,55,29.80,7.0,ESE,9.2,-,N/A,,Overcast,120,2013-05-01 17:35:00
12:55 PM,88.9,69.4,52,29.79,7.0,ESE,10.4,-,N/A,,Mostly Cloudy,120,2013-05-01 17:55:00
1:15 PM,88.2,68.7,52,29.79,7.0,SE,9.2,-,N/A,,Mostly Cloudy,130,2013-05-01 18:15:00
1:35 PM,88.9,68.4,51,29.79,7.0,ESE,9.2,-,N/A,,Mostly Cloudy,120,2013-05-01 18:35:00
1:55 PM,90.7,68.2,47,29.79,7.0,ESE,9.2,-,N/A,,Scattered Clouds,120,2013-05-01 18:55:00
2:15 PM,91.6,68.0,46,29.78,7.0,SSE,9.2,-,N/A,,Scattered Clouds,150,2013-05-01 19:15:00
2:35 PM,92.5,66.9,43,29.78,7.0,South,8.1,-,N/A,,Scattered Clouds,170,2013-05-01 19:35:00
2:55 PM,91.0,67.8,46,29.78,7.0,ESE,11.5,17.3,N/A,,Scattered Clouds,120,2013-05-01 19:55:00
3:15 PM,90.7,69.4,50,29.77,7.0,East,9.2,17.3,N/A,,Mostly Cloudy,100,2013-05-01 20:15:00
3:35 PM,91.4,68.5,47,29.77,7.0,SE,11.5,18.4,N/A,,Scattered Clouds,140,2013-05-01 20:35:00
3:55 PM,91.2,68.4,47,29.76,7.0,SE,10.4,17.3,N/A,,Scattered Clouds,140,2013-05-01 20:55:00
4:15 PM,91.8,68.5,46,29.76,7.0,SE,16.1,-,N/A,,Scattered Clouds,140,2013-05-01 21:15:00
4:35 PM,90.0,68.0,48,29.76,7.0,ESE,8.1,17.3,N/A,,Scattered Clouds,110,2013-05-01 21:35:00
4:55 PM,90.1,69.1,50,29.75,5.0,ESE,10.4,-,N/A,,Haze,120,2013-05-01 21:55:00
5:15 PM,89.4,68.9,51,29.76,7.0,SSE,10.4,-,N/A,,Scattered Clouds,150,2013-05-01 22:15:00
5:35 PM,89.1,68.9,51,29.76,7.0,SE,9.2,-,N/A,,Clear,130,2013-05-01 22:35:00
5:55 PM,88.7,68.5,51,29.75,7.0,SE,8.1,16.1,N/A,,Clear,130,2013-05-01 22:55:00
6:15 PM,87.6,68.5,53,29.76,7.0,SE,11.5,16.1,N/A,,Clear,130,2013-05-01 23:15:00
6:35 PM,86.5,68.9,56,29.76,7.0,SE,10.4,-,N/A,,Clear,140,2013-05-01 23:35:00
6:55 PM,85.8,69.1,57,29.77,7.0,SE,9.2,-,N/A,,Clear,130,2013-05-01 23:55:00
7:15 PM,83.8,69.1,61,29.78,7.0,SE,9.2,16.1,N/A,,Clear,140,2013-05-02 00:15:00
7:35 PM,82.6,69.1,64,29.78,10.0,SE,10.4,-,N/A,,Clear,130,2013-05-02 00:35:00
7:55 PM,82.4,69.6,65,29.79,10.0,ESE,5.8,-,N/A,,Clear,120,2013-05-02 00:55:00
8:15 PM,81.5,69.8,67,29.80,10.0,ESE,6.9,-,N/A,,Scattered Clouds,110,2013-05-02 01:15:00
8:35 PM,80.2,70.0,71,29.81,10.0,East,9.2,-,N/A,,Mostly Cloudy,100,2013-05-02 01:35:00
8:55 PM,79.7,70.0,72,29.82,10.0,East,5.8,-,N/A,,Overcast,100,2013-05-02 01:55:00
9:35 PM,78.3,70.7,77,29.83,10.0,East,9.2,-,N/A,,Overcast,100,2013-05-02 02:35:00
9:55 PM,77.4,70.2,78,29.84,10.0,ESE,8.1,-,N/A,,Mostly Cloudy,110,2013-05-02 02:55:00
10:15 PM,76.1,69.6,80,29.85,10.0,ESE,6.9,-,N/A,,Scattered Clouds,120,2013-05-02 03:15:00
10:35 PM,76.1,68.9,78,29.85,10.0,ESE,8.1,-,N/A,,Scattered Clouds,110,2013-05-02 03:35:00
10:55 PM,76.1,69.3,79,29.85,10.0,SE,8.1,-,N/A,,Mostly Cloudy,130,2013-05-02 03:55:00
11:15 PM,76.3,68.9,78,29.85,10.0,SE,10.4,-,N/A,,Overcast,140,2013-05-02 04:15:00
11:35 PM,76.5,68.9,77,29.85,10.0,SE,8.1,-,N/A,,Overcast,140,2013-05-02 04:35:00
11:55 PM,76.5,68.9,77,29.86,10.0,SE,6.9,-,N/A,,Overcast,130,2013-05-02 04:55:00